Location: Tel Aviv
(32.0670°N, 34.7670°E)
Time: 13:20:09
(UTC+03:00)

Explorer 11/Cluster Stage 4 - Pass Details

Date: 21 September 2024
Orbit: 464 x 1208 km, 28.8° (Epoch: 05 October)

Event Time Altitude Azimuth Distance (km) Brightness Sun altitude
Rises 06:33:36 0° 263° (W) 3,129 9.0 0.2°
Reaches altitude 10° 06:35:50 10° 261° (W) 2,315 8.4 0.7°
Maximum altitude 06:41:22 66° 180° (S) 978 7.2 1.9°
Drops below altitude 10° 06:48:13 10° 99° (E) 2,846 11.8 3.3°
Sets 06:51:14 0° 97° (E) 3,899 13.0 3.9°
